• In Österreich
  • Länderverzeichnis
  • Für 7 Tage
  • Wassertemperatur
  • Satellitenkarten
  • Wetterkarte
  • News
  • Widgets
  • user-avatar
    Anmelden

    Stündliche Wetter Graz

    Heute, 22 September, Samstag

    Zeit Temperatur Niederschläge Wind Luftdruck Luftfeuchtigkeit
    00:00 +19°C° 0.2 mm 1 m/S 723 mmHg 90%
    01:00 +18°C° 0.2 mm 2 m/S 724 mmHg 91%
    02:00 +18°C° 0.2 mm 1 m/S 724 mmHg 90%
    03:00 +18°C° 0.2 mm 1 m/S 725 mmHg 90%
    04:00 +18°C° 0.2 mm 1 m/S 725 mmHg 89%
    05:00 +16°C° 1.3 mm 2 m/S 726 mmHg 90%
    06:00 +15°C° 1.3 mm 2 m/S 726 mmHg 91%
    07:00 +14°C° 1.3 mm 3 m/S 727 mmHg 91%
    08:00 +14°C° 1.6 mm 2 m/S 728 mmHg 91%
    09:00 +13°C° 1.6 mm 2 m/S 728 mmHg 91%
    10:00 +12°C° 1.6 mm 1 m/S 729 mmHg 92%
    11:00 +12°C° 0.8 mm 1 m/S 729 mmHg 92%
    12:00 +12°C° 0.8 mm 1 m/S 729 mmHg 92%
    13:00 +11°C° 0.8 mm 0 m/S 729 mmHg 92%
    14:00 +12°C° 0.2 mm 1 m/S 729 mmHg 92%
    15:00 +12°C° 0.2 mm 1 m/S 729 mmHg 92%
    16:00 +12°C° 0.2 mm 1 m/S 729 mmHg 92%
    17:00 +12°C° 0 mm 1 m/S 729 mmHg 93%
    18:00 +12°C° 0 mm 1 m/S 729 mmHg 94%
    19:00 +12°C° 0 mm 1 m/S 729 mmHg 94%
    20:00 +12°C° 0 mm 1 m/S 729 mmHg 94%
    21:00 +11°C° 0 mm 0 m/S 729 mmHg 93%
    22:00 +11°C° 0 mm 0 m/S 729 mmHg 93%
    23:00 +11°C° 0 mm 0 m/S 729 mmHg 92%

    Morgen, 23 September, Sonntag

    Zeit Temperatur Niederschläge Wind Luftdruck Luftfeuchtigkeit
    00:00 +11°C° 0 mm 0 m/S 729 mmHg 91%
    01:00 +11°C° 0 mm 0 m/S 728 mmHg 91%
    02:00 +11°C° 0.1 mm 0 m/S 728 mmHg 90%
    03:00 +11°C° 0.1 mm 0 m/S 728 mmHg 90%
    04:00 +11°C° 0.1 mm 0 m/S 727 mmHg 89%
    05:00 +11°C° 0 mm 0 m/S 727 mmHg 89%
    06:00 +12°C° 0 mm 0 m/S 727 mmHg 88%
    07:00 +13°C° 0 mm 1 m/S 727 mmHg 88%
    08:00 +15°C° 0 mm 1 m/S 727 mmHg 82%
    09:00 +16°C° 0 mm 1 m/S 727 mmHg 76%
    10:00 +19°C° 0 mm 1 m/S 727 mmHg 71%
    11:00 +21°C° 0 mm 1 m/S 727 mmHg 66%
    12:00 +23°C° 0 mm 1 m/S 726 mmHg 61%
    13:00 +25°C° 0 mm 2 m/S 726 mmHg 57%
    14:00 +25°C° 0 mm 2 m/S 725 mmHg 59%
    15:00 +25°C° 0 mm 2 m/S 725 mmHg 61%
    16:00 +25°C° 0 mm 2 m/S 724 mmHg 64%
    17:00 +23°C° 0 mm 2 m/S 723 mmHg 73%
    18:00 +21°C° 0 mm 1 m/S 723 mmHg 81%
    19:00 +19°C° 0 mm 1 m/S 722 mmHg 90%
    20:00 +19°C° 0 mm 1 m/S 722 mmHg 91%
    21:00 +18°C° 0 mm 2 m/S 721 mmHg 92%
    22:00 +17°C° 0 mm 2 m/S 720 mmHg 94%
    23:00 +17°C° 0 mm 2 m/S 720 mmHg 94%

    übermorgen, 24 September, Montag

    Zeit Temperatur Niederschläge Wind Luftdruck Luftfeuchtigkeit
    00:00 +17°C° 0 mm 2 m/S 719 mmHg 93%
    01:00 +18°C° 0 mm 3 m/S 719 mmHg 93%
    02:00 +17°C° 0.3 mm 3 m/S 720 mmHg 88%
    03:00 +17°C° 0.3 mm 4 m/S 721 mmHg 83%
    04:00 +15°C° 0.3 mm 4 m/S 722 mmHg 78%
    05:00 +14°C° 0 mm 5 m/S 723 mmHg 75%
    06:00 +13°C° 0 mm 5 m/S 725 mmHg 72%
    07:00 +12°C° 0 mm 5 m/S 726 mmHg 69%
    08:00 +13°C° 0 mm 5 m/S 727 mmHg 63%
    09:00 +13°C° 0 mm 6 m/S 728 mmHg 57%
    10:00 +14°C° 0 mm 6 m/S 730 mmHg 51%
    11:00 +14°C° 0 mm 6 m/S 730 mmHg 50%
    12:00 +14°C° 0 mm 6 m/S 731 mmHg 49%
    13:00 +14°C° 0 mm 5 m/S 731 mmHg 47%
    14:00 +14°C° 0 mm 5 m/S 731 mmHg 47%
    15:00 +14°C° 0 mm 5 m/S 731 mmHg 47%
    16:00 +13°C° 0 mm 5 m/S 732 mmHg 47%
    17:00 +11°C° 0 mm 4 m/S 732 mmHg 54%
    18:00 +10°C° 0 mm 3 m/S 732 mmHg 61%
    19:00 +8°C° 0 mm 2 m/S 733 mmHg 69%
    20:00 +7°C° 0 mm 2 m/S 733 mmHg 72%
    21:00 +8°C° 0 mm 1 m/S 734 mmHg 75%
    22:00 +7°C° 0 mm 1 m/S 734 mmHg 78%
    23:00 +7°C° 0 mm 1 m/S 735 mmHg 78%

    25 September, Dienstag

    Zeit Temperatur Niederschläge Wind Luftdruck Luftfeuchtigkeit
    00:00 +7°C° 0 mm 1 m/S 735 mmHg 79%
    01:00 +7°C° 0 mm 1 m/S 735 mmHg 79%
    02:00 +7°C° 0 mm 1 m/S 735 mmHg 81%
    03:00 +6°C° 0 mm 1 m/S 736 mmHg 82%
    04:00 +6°C° 0 mm 1 m/S 736 mmHg 83%
    05:00 +7°C° 0 mm 1 m/S 736 mmHg 81%
    06:00 +7°C° 0 mm 1 m/S 737 mmHg 79%
    07:00 +8°C° 0 mm 1 m/S 737 mmHg 77%
    08:00 +9°C° 0 mm 1 m/S 737 mmHg 67%
    09:00 +10°C° 0 mm 2 m/S 738 mmHg 57%
    10:00 +13°C° 0 mm 2 m/S 738 mmHg 47%
    11:00 +14°C° 0 mm 2 m/S 738 mmHg 43%
    12:00 +14°C° 0 mm 2 m/S 737 mmHg 39%
    13:00 +15°C° 0 mm 2 m/S 737 mmHg 35%
    14:00 +15°C° 0 mm 2 m/S 737 mmHg 36%
    15:00 +15°C° 0 mm 2 m/S 736 mmHg 38%
    16:00 +15°C° 0 mm 2 m/S 736 mmHg 39%
    17:00 +12°C° 0 mm 2 m/S 736 mmHg 47%
    18:00 +10°C° 0 mm 1 m/S 737 mmHg 55%
    19:00 +8°C° 0 mm 1 m/S 737 mmHg 64%
    20:00 +7°C° 0 mm 1 m/S 737 mmHg 66%
    21:00 +6°C° 0 mm 1 m/S 737 mmHg 68%
    22:00 +5°C° 0 mm 0 m/S 737 mmHg 71%
    23:00 +4°C° 0 mm 0 m/S 737 mmHg 72%

    26 September, Mittwoch

    Zeit Temperatur Niederschläge Wind Luftdruck Luftfeuchtigkeit
    00:00 +4°C° 0 mm 0 m/S 737 mmHg 73%
    01:00 +5°C° 0 mm 1 m/S 737 mmHg 74%
    02:00 +5°C° 0 mm 1 m/S 737 mmHg 74%
    03:00 +5°C° 0 mm 1 m/S 736 mmHg 75%
    04:00 +5°C° 0 mm 1 m/S 736 mmHg 76%
    05:00 +5°C° 0 mm 1 m/S 736 mmHg 72%
    06:00 +6°C° 0 mm 1 m/S 736 mmHg 69%
    07:00 +7°C° 0 mm 1 m/S 736 mmHg 66%
    08:00 +10°C° 0 mm 1 m/S 736 mmHg 57%
    09:00 +12°C° 0 mm 0 m/S 736 mmHg 48%
    10:00 +16°C° 0 mm 0 m/S 736 mmHg 39%
    11:00 +17°C° 0 mm 0 m/S 736 mmHg 36%
    12:00 +20°C° 0 mm 1 m/S 736 mmHg 34%
    13:00 +21°C° 0 mm 1 m/S 735 mmHg 32%
    14:00 +20°C° 0 mm 1 m/S 735 mmHg 35%
    15:00 +19°C° 0 mm 1 m/S 735 mmHg 38%
    16:00 +19°C° 0 mm 1 m/S 734 mmHg 41%
    17:00 +15°C° 0 mm 1 m/S 734 mmHg 49%
    18:00 +11°C° 0 mm 0 m/S 734 mmHg 57%
    19:00 +9°C° 0 mm 0 m/S 734 mmHg 65%
    20:00 +8°C° 0 mm 0 m/S 735 mmHg 67%
    21:00 +8°C° 0 mm 0 m/S 735 mmHg 68%
    22:00 +8°C° 0 mm 1 m/S 735 mmHg 69%
    23:00 +8°C° 0 mm 1 m/S 734 mmHg 69%

    27 September, Donnerstag

    Zeit Temperatur Niederschläge Wind Luftdruck Luftfeuchtigkeit
    00:00 +8°C° 0 mm 1 m/S 734 mmHg 70%
    01:00 +8°C° 0 mm 1 m/S 734 mmHg 71%
    02:00 +8°C° 0 mm 1 m/S 734 mmHg 71%
    03:00 +7°C° 0 mm 1 m/S 733 mmHg 71%
    04:00 +7°C° 0 mm 1 m/S 733 mmHg 71%
    05:00 +8°C° 0 mm 1 m/S 733 mmHg 69%
    06:00 +9°C° 0 mm 1 m/S 733 mmHg 66%
    07:00 +9°C° 0 mm 1 m/S 733 mmHg 64%
    08:00 +13°C° 0 mm 1 m/S 733 mmHg 55%
    09:00 +16°C° 0 mm 1 m/S 733 mmHg 47%
    10:00 +20°C° 0 mm 1 m/S 732 mmHg 38%
    11:00 +22°C° 0 mm 1 m/S 732 mmHg 36%
    12:00 +23°C° 0 mm 1 m/S 732 mmHg 34%
    13:00 +24°C° 0 mm 1 m/S 731 mmHg 32%
    14:00 +23°C° 0 mm 1 m/S 731 mmHg 36%
    15:00 +23°C° 0 mm 1 m/S 730 mmHg 40%
    16:00 +22°C° 0 mm 1 m/S 730 mmHg 44%
    17:00 +19°C° 0 mm 1 m/S 730 mmHg 52%
    18:00 +16°C° 0 mm 1 m/S 730 mmHg 59%
    19:00 +13°C° 0 mm 1 m/S 729 mmHg 67%
    20:00 +12°C° 0 mm 1 m/S 730 mmHg 68%
    21:00 +12°C° 0 mm 1 m/S 730 mmHg 70%
    22:00 +11°C° 0 mm 1 m/S 730 mmHg 71%
    23:00 +11°C° 0 mm 1 m/S 730 mmHg 71%
    Mehr zeigen